Weather History for Olney-Noble, IL

Change the Weather History Date:

Monday, July 2, 2012

  Actual Average (KEVV) Record (KEVV)
Temperature  
Mean Temperature 86 °F 78 °F  
Max Temperature 102 °F 89 °F 103 °F (2012)
Min Temperature 69 °F 67 °F 52 °F (1948)
Degree Days  
Heating Degree Days 0 0  
Month to date heating degree days 0  
Since 1 June heating degree days 6  
Since 1 July heating degree days 0  
Cooling Degree Days 20 13  
Month to date cooling degree days 26  
Year to date cooling degree days 459  
Since 1 June cooling degree days 324  
Growing Degree Days 36 (Base 50)    
Moisture  
Dew Point 64 °F    
Average Humidity 58    
Maximum Humidity 83    
Minimum Humidity 27    
Precipitation  
Precipitation 0.28 in 0.13 in 2.90 in (1992)
Month to date precipitation 0.26  
Year to date precipitation 24.28  
Snow  
Snow 0.00 in 0.00 in - ()
Month to date snowfall 0.0  
Since 1 June snowfall 0.0  
Since 1 July snowfall 0.0  
Snow Depth -    
Sea Level Pressure  
Sea Level Pressure 29.98 in    
Wind  
Wind Speed 3 mph (SSE)    
Max Wind Speed 23 mph    
Max Gust Speed 32 mph    
Visibility 10 miles    
Events Rain , Thunderstorm    
T = Trace of Precipitation, MM = Missing Value Source: NWS Daily Summary

Daily Weather History Graph

Daily Weather History Graph

Search for Another Location

Airport:

Trip Planner

Search our weather history database for the weather conditions in past years. The results will help you decide how hot, cold, wet, or windy it might be!

Date:

Astronomy

Jul. 02, 2012 Rise Set
Actual Time 5:32 AM CDT 8:21 PM CDT
Civil Twilight 5:00 AM CDT 8:52 PM CDT
Nautical Twilight 4:20 AM CDT 9:32 PM CDT
Astronomical Twilight 3:35 AM CDT 10:18 PM CDT
Moon 7:24 PM CDT (7/2) 4:18 AM CDT (7/2)
Length of Visible Light 15h 52m
Length of Day
14h 48m
Waxing Gibbous, 98% of the Moon is Illuminated
Jul 2
Waxing Gibbous
Jul 3
Full
Jul 10
Last Quarter
Jul 18
New
Jul 26
First Quarter

Hourly Weather History & Observations

Time (CDT) Temp. Heat Index Dew Point Humidity Pressure Visibility Wind Dir Wind Speed Gust Speed Precip Events Conditions
12:15 AM 73.4 °F - 66.2 °F 78% 29.96 in 10.0 mi Calm Calm - N/A   Clear
12:35 AM 73.4 °F - 66.2 °F 78% 29.95 in 10.0 mi Calm Calm - N/A   Clear
12:55 AM 73.4 °F - 66.2 °F 78% 29.95 in 10.0 mi Calm Calm - N/A   Clear
1:15 AM 73.4 °F - 66.2 °F 78% 29.96 in 10.0 mi Calm Calm - N/A   Clear
1:35 AM 71.6 °F - 66.2 °F 83% 29.95 in 10.0 mi Calm Calm - N/A   Clear
1:55 AM 71.6 °F - 66.2 °F 83% 29.96 in 10.0 mi Calm Calm - N/A   Clear
2:15 AM 71.6 °F - 66.2 °F 83% 29.96 in 10.0 mi Calm Calm - N/A   Clear
2:35 AM 71.6 °F - 66.2 °F 83% 29.95 in 10.0 mi Calm Calm - N/A   Clear
2:55 AM 71.6 °F - 64.4 °F 78% 29.96 in 10.0 mi Calm Calm - N/A   Clear
3:15 AM 71.6 °F - 64.4 °F 78% 29.96 in 10.0 mi Calm Calm - N/A   Clear
3:35 AM 71.6 °F - 64.4 °F 78% 29.96 in 10.0 mi Calm Calm - N/A   Clear
3:55 AM 71.6 °F - 64.4 °F 78% 29.97 in 10.0 mi Calm Calm - N/A   Clear
4:15 AM 69.8 °F - 64.4 °F 83% 29.96 in 10.0 mi Calm Calm - N/A   Clear
4:35 AM 69.8 °F - 64.4 °F 83% 29.97 in 10.0 mi Calm Calm - N/A   Clear
4:55 AM 69.8 °F - 64.4 °F 83% 29.97 in 10.0 mi Calm Calm - N/A   Clear
5:15 AM 69.8 °F - 64.4 °F 83% 29.98 in 10.0 mi Calm Calm - N/A   Clear
5:35 AM 69.8 °F - 64.4 °F 83% 29.98 in 10.0 mi Calm Calm - N/A   Clear
5:55 AM 69.8 °F - 64.4 °F 83% 29.99 in 10.0 mi Calm Calm - N/A   Clear
6:15 AM 69.8 °F - 64.4 °F 83% 29.99 in 10.0 mi Calm Calm - N/A   Clear
6:35 AM 71.6 °F - 64.4 °F 78% 30.00 in 10.0 mi Calm Calm - N/A   Clear
6:55 AM 75.2 °F - 64.4 °F 69% 30.00 in 10.0 mi Calm Calm - N/A   Clear
7:15 AM 78.8 °F - 64.4 °F 61% 29.99 in 10.0 mi Calm Calm - N/A   Clear
7:35 AM 80.6 °F 81.8 °F 62.6 °F 54% 30.00 in 10.0 mi Calm Calm - N/A   Clear
7:55 AM 82.4 °F 83.4 °F 62.6 °F 51% 30.00 in 10.0 mi Calm Calm - N/A   Clear
8:15 AM 84.2 °F 85.6 °F 64.4 °F 51% 30.01 in 10.0 mi Calm Calm - N/A   Clear
8:35 AM 86.0 °F 87.3 °F 64.4 °F 48% 30.01 in 10.0 mi Calm Calm - N/A   Clear
8:55 AM 89.6 °F 91.1 °F 64.4 °F 43% 30.01 in 10.0 mi Calm Calm - N/A   Clear
9:15 AM 89.6 °F 91.1 °F 64.4 °F 43% 30.01 in 10.0 mi Calm Calm - N/A   Clear
9:35 AM 91.4 °F 94.0 °F 66.2 °F 43% 30.00 in 10.0 mi Calm Calm - N/A   Clear
9:55 AM 93.2 °F 94.9 °F 64.4 °F 38% 30.00 in 10.0 mi Calm Calm - N/A   Clear
10:15 AM 93.2 °F 96.2 °F 66.2 °F 41% 30.00 in 10.0 mi Calm Calm - N/A   Clear
10:35 AM 96.8 °F 100.7 °F 66.2 °F 37% 30.00 in 10.0 mi SSE 4.6 mph - N/A   Clear
10:55 AM 96.8 °F 100.7 °F 66.2 °F 37% 29.99 in 10.0 mi ESE 5.8 mph - N/A   Clear
11:15 AM 98.6 °F 101.0 °F 64.4 °F 32% 29.99 in 10.0 mi SE 6.9 mph - N/A   Clear
11:35 AM 98.6 °F 101.0 °F 64.4 °F 32% 29.98 in 10.0 mi SE 5.8 mph - N/A   Clear
11:55 AM 98.6 °F 101.0 °F 64.4 °F 32% 29.98 in 10.0 mi SE 5.8 mph - N/A   Clear
12:15 PM 100.4 °F 103.6 °F 64.4 °F 31% 29.98 in 10.0 mi SE 8.1 mph - N/A   Clear
12:35 PM 100.4 °F 102.4 °F 62.6 °F 29% 29.98 in 10.0 mi SSE 8.1 mph - N/A   Clear
12:55 PM 100.4 °F 103.6 °F 64.4 °F 31% 29.97 in 10.0 mi SSE 9.2 mph - N/A   Clear
1:15 PM 102.2 °F 104.2 °F 62.6 °F 27% 29.97 in 10.0 mi SSE 6.9 mph - N/A   Clear
1:35 PM 102.2 °F 104.2 °F 62.6 °F 27% 29.96 in 10.0 mi South 6.9 mph - N/A   Clear
1:55 PM 102.2 °F 104.2 °F 62.6 °F 27% 29.96 in 10.0 mi SSE 8.1 mph - N/A   Clear
2:15 PM 102.2 °F 104.2 °F 62.6 °F 27% 29.95 in 10.0 mi SSE 9.2 mph - N/A   Clear
2:35 PM 102.2 °F 105.5 °F 64.4 °F 29% 29.94 in 10.0 mi SSE 5.8 mph - N/A   Clear
2:55 PM 100.4 °F 103.6 °F 64.4 °F 31% 29.93 in 10.0 mi SE 4.6 mph - N/A   Clear
3:15 PM 100.4 °F 103.6 °F 64.4 °F 31% 29.92 in 10.0 mi South 5.8 mph - N/A   Clear
3:35 PM 98.6 °F 100.0 °F 62.6 °F 30% 29.92 in 10.0 mi SSE 3.5 mph - N/A   Scattered Clouds
3:55 PM 96.8 °F 99.0 °F 64.4 °F 34% 29.92 in 10.0 mi SE 3.5 mph - N/A   Scattered Clouds
4:15 PM 96.8 °F 99.0 °F 64.4 °F 34% 29.92 in 10.0 mi WNW 15.0 mph 23.0 mph N/A Thunderstorm Scattered Clouds
4:35 PM 82.4 °F 85.4 °F 68.0 °F 62% 29.97 in 10.0 mi SW 12.7 mph 19.6 mph 0.02 in Rain , Thunderstorm Light Thunderstorms and Rain
4:55 PM 75.2 °F - 69.8 °F 83% 30.04 in 5.0 mi South 23.0 mph 32.2 mph 0.04 in Rain , Thunderstorm Heavy Thunderstorms and Rain
5:15 PM 69.8 °F - 64.4 °F 83% 30.06 in 7.0 mi SSW 10.4 mph 27.6 mph 0.20 in Rain , Thunderstorm Heavy Thunderstorms and Rain
5:35 PM 71.6 °F - 64.4 °F 78% 30.02 in 10.0 mi West 18.4 mph 21.9 mph 0.23 in Rain , Thunderstorm Light Thunderstorms and Rain
5:55 PM 75.2 °F - 62.6 °F 65% 29.98 in 1.5 mi West 12.7 mph 24.2 mph N/A Rain , Thunderstorm Light Thunderstorms and Rain
6:15 PM 80.6 °F 80.8 °F 57.2 °F 45% 29.97 in 10.0 mi West 9.2 mph - N/A Rain , Thunderstorm Light Thunderstorms and Rain
6:35 PM 80.6 °F 81.1 °F 59.0 °F 48% 29.97 in 10.0 mi WSW 6.9 mph - N/A Rain , Thunderstorm Light Thunderstorms and Rain
6:55 PM 77.0 °F - 64.4 °F 65% 29.94 in 10.0 mi ENE 6.9 mph - N/A Rain Light Rain
7:15 PM 75.2 °F - 66.2 °F 73% 29.94 in 10.0 mi East 3.5 mph - 0.01 in   Scattered Clouds
7:35 PM 75.2 °F - 66.2 °F 73% 29.93 in 10.0 mi Calm Calm - 0.01 in   Clear
7:55 PM 77.0 °F - 62.6 °F 61% 29.96 in 10.0 mi West 11.5 mph 19.6 mph N/A Thunderstorm Clear
8:15 PM 75.2 °F - 64.4 °F 69% 29.96 in 10.0 mi NNW 6.9 mph - N/A Thunderstorm Clear
8:35 PM 75.2 °F - 64.4 °F 69% 29.96 in 10.0 mi NW 5.8 mph - N/A   Scattered Clouds
8:55 PM 77.0 °F - 64.4 °F 65% 30.00 in 10.0 mi East 12.7 mph 21.9 mph N/A   Scattered Clouds
9:15 PM 78.8 °F - 62.6 °F 57% 30.00 in 10.0 mi ESE 12.7 mph 18.4 mph N/A Rain Light Rain
9:35 PM 78.8 °F - 62.6 °F 57% 30.00 in 10.0 mi SE 8.1 mph - N/A   Scattered Clouds
9:55 PM 78.8 °F - 62.6 °F 57% 30.00 in 10.0 mi SE 10.4 mph - N/A   Clear
10:15 PM 78.8 °F - 64.4 °F 61% 30.00 in 10.0 mi SE 12.7 mph 18.4 mph N/A   Clear
10:35 PM 78.8 °F - 64.4 °F 61% 30.02 in 10.0 mi South 9.2 mph - N/A   Clear
10:55 PM 78.8 °F - 64.4 °F 61% 30.02 in 10.0 mi South 8.1 mph - N/A   Clear
11:15 PM 77.0 °F - 64.4 °F 65% 30.01 in 10.0 mi SE 9.2 mph - N/A   Clear
11:35 PM 77.0 °F - 64.4 °F 65% 30.00 in 10.0 mi SE 10.4 mph - N/A   Clear
11:55 PM 75.2 °F - 66.2 °F 73% 30.00 in 10.0 mi SSE 9.2 mph - N/A   Clear